Location: *
(51.8012°N, 4.5301°W)
Time: 23:54:09
(UTC+00:00)

Daily predictions for brighter satellites

Satellite Brightness Start Highest point End
(mag) Time Altitude Azimuth Time Altitude Azimuth Time Altitude Azimuth
ATLAS 5 CENTAUR R/B 4.1 20:58:48 10° NW 21:02:55 24° N 21:07:31 10° ENE
Lacrosse 5 2.9 20:58:13 10° WNW 21:03:07 47° N 21:08:02 10° ENE
Cosmos 2219 Rocket 3.8 21:00:57 10° SE 21:04:19 16° E 21:07:41 10° ENE
SPOT 1/Viking Rocket 3.9 21:00:00 10° SE 21:05:00 52° ENE 21:10:04 10° N
Cosmos 2322 Rocket 2.2 21:00:48 10° SSW 21:06:31 81° ESE 21:12:15 10° NNE
Cosmos 921 Rocket 3.7 21:02:21 10° NNW 21:06:31 54° WSW 21:10:43 10° S
Cosmos 1464 Rocket 4.0 21:00:20 10° S 21:06:36 83° E 21:12:49 10° NNE
Cosmos 44 4.3 21:03:04 10° WSW 21:08:10 55° NW 21:13:02 10° NE
Cosmos 1242 Rocket 3.1 21:05:52 10° SSW 21:09:31 64° WNW 21:13:12 10° N
Cosmos 2278 Rocket 3.5 21:06:32 10° NNW 21:11:31 30° NE 21:16:29 10° ESE
USA 267 3.5 21:06:12 10° SE 21:12:43 64° SW 21:19:15 10° WNW
USA 245 1.9 21:11:33 10° SSE 21:13:43 70° ENE 21:16:07 10° N
SL-16 R/B 2.4 21:08:15 10° SSW 21:13:55 83° WNW 21:19:40 10° NNE
Aureole 1 Rocket 4.4 21:10:21 10° SW 21:15:41 68° WNW 21:22:45 10° NNE
Cosmos 1818 3.8 21:10:56 10° NW 21:16:25 69° NE 21:21:51 10° SE
Cosmos 2026 Rocket 4.5 21:12:12 10° N 21:18:01 45° ENE 21:23:53 10° SE
Cosmos 2333 Rocket 3.5 21:14:55 10° SSE 21:19:00 21° E 21:23:06 10° NE
Cosmos 1933 3.4 21:15:01 10° N 21:19:04 65° ENE 21:23:04 10° SSE
Terra 2.6 21:15:51 10° SE 21:20:15 38° ENE 21:24:39 10° N
Cosmos 1151 Rocket 3.6 21:16:01 10° NNW 21:20:22 59° W 21:24:40 10° S
Cosmos 1844 Rocket 2.8 21:14:43 10° NNW 21:20:27 85° ENE 21:26:09 10° SSE
EO 1 Del DPAF 3.5 21:17:07 10° NNE 21:20:49 47° E 21:24:30 10° S
Cosmos 44 Rocket 3.4 21:15:45 10° SW 21:20:52 78° SE 21:25:53 10° NE
NOSS 3-1 (C) 4.1 21:16:00 10° S 21:20:54 32° ESE 21:26:26 10° NE
Meteor 2-3 Rocket 4.4 21:18:43 10° SSE 21:24:04 40° E 21:29:28 10° NNE
Cosmos 2263 Rocket 4.1 21:20:56 10° NW 21:25:31 25° WSW 21:30:03 10° SSW
Cosmos 2228 Rocket 3.2 21:21:27 10° N 21:26:03 88° E 21:30:37 10° S
Meteor 1-26 Rocket 4.4 21:21:13 10° N 21:26:51 63° ENE 21:32:19 10° SSE
CARTOSAT-1 3.9 21:22:57 10° SE 21:27:08 53° ENE 21:31:22 10° N
Cosmos 2322 4.1 21:23:12 10° S 21:28:27 41° ESE 21:33:45 10° NE
Cosmos 2084 Rocket 3.5 21:26:33 10° NW 21:30:58 83° SW 21:35:02 12° SE
Cosmos 1900 4.4 21:26:59 10° SSW 21:32:06 66° SE 21:37:13 10° NE
NOSS 5 (C) 4.2 21:28:54 10° SW 21:32:37 74° SE 21:35:42 10° NE
CZ-2C R/B 4.1 21:27:38 10° S 21:32:39 42° W 21:37:28 10° NNW
Gbstr 26 Del rocket 2.6 21:33:19 10° WSW 21:37:16 79° S 21:41:01 10° E
Resurs 01 Rocket 3.8 21:33:43 10° SW 21:37:16 23° W 21:40:50 10° NW
Cosmos 1892 3.8 21:37:12 10° SSW 21:40:54 45° WNW 21:44:36 10° N
Sich 1 4.0 21:42:57 13° SSE 21:46:13 30° E 21:49:58 10° NNE
Cosmos 1140 Rocket 3.7 21:47:24 10° S 21:52:23 51° ESE 21:57:26 10° NNE
Cosmos 2237 4.2 21:47:07 10° SSW 21:52:47 80° ESE 21:58:30 10° NNE
ADEOS Rocket 3.8 21:48:35 10° N 21:54:01 49° WNW 21:59:16 10° SW
Cosmos 1500 Rocket 3.8 21:50:01 10° SSW 21:54:29 76° WNW 21:58:59 10° N
Lacrosse 5 rocket 2.2 21:53:12 10° WNW 21:57:47 56° NNE 22:02:16 10° E
USA 229 DEB 3.7 21:52:54 10° SSW 21:59:26 65° SE 22:06:18 10° NE
USA 229 3.7 21:53:01 10° SSW 21:59:33 65° SE 22:06:24 10° NE
Cosmos 407 Rocket 3.5 21:54:31 10° SSW 21:59:50 84° ESE 22:05:14 10° NNE
Cosmos 614 Rocket 3.9 21:55:47 10° SSW 22:00:50 78° ESE 22:05:56 10° NNE
Cosmos 1408 3.3 21:57:18 10° SSW 22:00:58 54° WNW 22:04:39 10° N
IGS 5A 3.9 21:58:06 10° S 22:02:09 58° W 22:06:18 10° NNW
ERS-1 Rocket 3.5 21:57:48 10° S 22:02:45 56° W 22:07:43 10° NNW
NOSS 3-1 (A) 3.8 21:57:38 10° S 22:02:50 39° ESE 22:08:46 10° NE
Cosmos 1633 4.5 22:03:36 13° ESE 22:05:00 16° E 22:07:14 10° NE
Cosmos 1844 4.1 22:01:22 10° NW 22:06:52 58° WSW 22:11:40 14° S
Cosmos 1190 Rocket 4.0 22:02:45 10° SSW 22:07:57 88° ESE 22:13:14 10° NNE
Thor Agena Rocket 3.5 22:05:42 10° NNE 22:10:47 89° WNW 22:15:51 10° SSW
COSMOS 2428 3.0 22:05:32 10° S 22:11:01 50° ESE 22:16:33 10° NE
Cosmos 1782 2.8 22:07:23 10° N 22:11:27 78° E 22:14:21 18° SSE
USA 81 4.4 22:08:08 10° NNW 22:13:22 64° W 22:18:34 10° S
SL-4 R/B 2.5 22:09:23 10° SW 22:14:04 50° SSE 22:18:39 10° E
Meteor 1-10 Rocket 4.5 22:09:49 10° N 22:15:25 60° ENE 22:19:44 17° SSE
Helios 1A 3.9 22:13:41 16° SE 22:16:31 36° ENE 22:20:21 10° N
SPOT 5 3.5 22:12:52 11° S 22:17:33 53° W 22:22:14 10° NNW
Cosmos 2360 Rocket 2.7 22:13:03 10° SW 22:18:39 64° NW 22:24:17 10° NNE
USA 215 3.5 22:12:44 10° ENE 22:19:16 76° NNW 22:25:49 10° WSW
Cosmos 1400 Rocket 4.3 22:17:13 10° N 22:20:49 27° ENE 22:23:22 15° ESE
Cosmos 1606 3.8 22:18:29 10° NNW 22:22:01 39° W 22:25:18 11° SSW
Cosmos 2237 Rocket 3.3 22:19:39 18° SE 22:22:32 26° ESE 22:27:08 10° NE
Cosmos 1763 Rocket 4.1 22:18:00 10° NNW 22:23:03 48° ENE 22:26:57 16° SE
Cosmos 1707 Rocket 3.6 22:18:46 10° NNW 22:23:15 84° W 22:26:32 18° S
Cosmos 2279 Rocket 4.0 22:18:48 14° S 22:24:10 66° E 22:30:19 10° NNE
Cosmos 1862 4.3 22:22:57 20° SE 22:24:55 32° E 22:28:30 10° NNE
Cosmos 1607 4.5 22:19:06 10° NW 22:24:57 47° WSW 22:29:33 17° S
Meteor 2-6 Rocket 4.2 22:19:37 10° N 22:25:05 76° ENE 22:29:11 19° SSE
CZ-2C R/B 3.5 22:22:15 10° N 22:27:19 50° WNW 22:32:17 10° SW
Cosmos 468 Rocket 4.2 22:23:48 10° NNW 22:29:05 67° ENE 22:32:49 19° SE
ATLAS 3B R/B 4.4 22:24:48 10° NW 22:30:38 31° N 22:36:28 10° ENE
Cosmos 1825 4.0 22:35:54 10° SW 22:39:13 29° WNW 22:42:34 10° N
ISS -3.9 22:36:32 10° W 22:39:53 83° S 22:43:14 10° E
NOSS 0 Rocket 4.3 22:37:27 17° S 22:41:53 45° ESE 22:47:43 10° NE
ATLAS CENTAUR R/B 1.6 22:37:27 10° NW 22:42:17 86° SW 22:45:04 23° SE
Mayak -0.6 22:39:07 10° NNE 22:43:09 40° E 22:45:09 25° SSE
Lacrosse 5 2.0 22:41:31 10° WNW 22:46:37 74° NNE 22:51:22 12° ESE
Cosmos 1805 Rocket 4.3 22:42:55 10° SSW 22:47:11 52° WNW 22:51:27 10° N
ASTEX 1 3.6 22:42:16 10° N 22:47:17 76° W 22:51:19 16° SSW
Cosmos 2219 Rocket 2.2 22:41:44 10° SSW 22:47:25 83° ESE 22:53:07 10° NNE
Cosmos 1943 Rocket 4.2 22:43:54 10° NNW 22:48:05 21° NE 22:52:16 10° E
Helios 1B rocket 3.9 22:44:56 10° NE 22:48:13 22° E 22:49:33 19° ESE
ATLAS 5 CENTAUR R/B 3.3 22:43:46 10° NW 22:48:53 41° NNE 22:54:43 10° E
Lacrosse 4 Rocket 3.4 22:50:03 14° ESE 22:50:24 14° ESE 22:52:47 10° ENE
Cosmos 2322 Rocket 4.4 22:46:24 10° W 22:51:13 27° NW 22:56:03 10° NNE
Cosmos 2297 4.4 22:46:33 10° NNW 22:52:02 48° NE 22:56:27 16° ESE
Cosmos 2278 Rocket 2.3 22:50:27 10° NW 22:56:06 69° WSW 22:59:40 23° SSE
Cosmos 2208 Rocket 4.1 22:51:19 10° NNW 22:56:48 77° ENE 23:00:13 23° SSE
Cosmos 1703 Rocket 4.4 22:52:55 10° N 22:57:08 39° ENE 22:59:32 22° SE
Terra 3.1 22:54:22 13° SSW 22:58:03 33° W 23:02:23 10° NNW
NOSS 2-3 (C) 4.0 22:56:02 19° SSW 22:59:05 51° SE 23:04:19 10° NE
MOS 1 Rocket 3.6 22:55:39 10° N 23:00:04 61° WNW 23:04:13 13° SSW
COSMOS 2455 3.8 22:58:56 22° SSE 23:01:26 30° ESE 23:06:35 10° NE
BREEZE-M DEB (TANK) 3.4 22:58:28 10° SW 23:02:32 56° SSE 23:11:15 10° ENE
Cosmos 2333 Rocket 2.3 22:56:54 10° SSW 23:02:38 82° WNW 23:08:22 10° NNE
Meteor 1-27 Rocket 3.8 22:57:20 10° NNW 23:03:15 86° ENE 23:07:03 24° SSE
SL-19 R/B 3.7 23:00:28 10° NNE 23:03:44 82° WNW 23:05:00 31° SSW
Cosmos 724 4.4 22:58:26 10° NW 23:04:29 73° SW 23:08:11 24° SSE
Cosmos 2242 Rocket 3.6 22:59:59 10° N 23:04:33 82° E 23:06:59 28° SSE
Okean 1-7 3.9 23:00:34 10° N 23:04:36 37° ENE 23:06:48 22° SE
Cosmos 1570 Rocket 4.0 23:00:31 10° NNW 23:05:47 82° WSW 23:08:50 26° SSE
Cosmos 1666 Rocket 4.1 23:04:27 16° SSW 23:07:58 57° WNW 23:12:25 10° N
Cosmos 1633 Rocket 3.3 23:05:17 19° SSW 23:08:18 67° WNW 23:12:39 10° N
Cosmos 1933 Rocket 3.7 23:07:57 28° SSE 23:10:02 58° E 23:14:22 10° NNE
NOSS 3-1 (C) 3.8 23:05:27 10° WSW 23:11:13 69° NW 23:18:02 10° NE
YAOGAN 11 4.1 23:10:56 29° SSE 23:13:05 74° ENE 23:17:27 10° NNW
ALOS 2 2.9 23:15:06 27° SE 23:17:20 60° ENE 23:21:41 10° N
Spot 4 4.0 23:14:57 26° S 23:17:37 66° WSW 23:22:24 10° NNW
Cosmos 1814 Rocket 4.0 23:12:59 10° NNW 23:18:10 79° ENE 23:21:04 26° SSE
Cosmos 2369 Rocket 3.8 23:15:16 10° NNW 23:20:16 30° NE 23:25:15 10° ESE
Cosmos 1862 Rocket 4.0 23:16:26 10° NNW 23:20:39 52° W 23:22:56 25° SSW
ERS-2 3.4 23:21:51 22° ESE 23:23:33 33° ENE 23:26:53 10° N
Gbstr 26 Del rocket 2.5 23:20:15 10° W 23:24:01 83° S 23:27:20 13° ESE
SL-24 R/B - RUBIN 2 4.4 23:20:46 10° NW 23:26:24 62° SW 23:29:55 26° SSE
GP-B 3.0 23:22:05 10° N 23:26:34 87° E 23:28:43 31° S
Cosmos 1867 3.5 23:21:56 11° SW 23:27:17 84° SE 23:32:49 10° NE
Cosmos 1470 Rocket 3.6 23:25:25 26° SSW 23:27:51 76° WNW 23:32:17 10° N
Cosmos 1741 Rocket 4.0 23:26:19 18° SSW 23:30:16 81° WNW 23:35:32 10° NNE
ARGOS Delta rocket 3.8 23:30:29 30° S 23:32:39 70° W 23:37:18 10° NNW
Cosmos 540 Rocket 3.4 23:29:21 10° NNW 23:34:30 81° ENE 23:37:17 28° SSE
Cosmos 1869 Rocket 4.3 23:33:12 28° SE 23:34:49 39° E 23:38:54 10° NNE
BREEZE-M DEB (TANK) 3.8 23:22:42 10° W 23:35:15 70° S 23:38:29 10° E
Lacrosse 5 rocket 1.7 23:32:35 10° WNW 23:37:05 53° SW 23:38:45 33° SSE
Cosmos 1812 3.1 23:34:28 10° NNW 23:38:16 55° W 23:39:44 33° SSW
Cosmos 1633 3.4 23:37:45 24° SW 23:39:31 45° WNW 23:42:59 10° N
Cosmos 1850 Rocket 4.3 23:35:26 15° SW 23:39:51 68° WNW 23:45:13 10° NNE
SAR-Lupe-3 4.5 23:40:29 10° NNE 23:44:05 84° ESE 23:45:15 41° S
SeaSat 1 2.8 23:44:51 10° NE 23:49:40 50° ESE 23:51:42 31° S
SL-16 R/B 2.6 23:47:56 29° SSE 23:50:28 47° ESE 23:55:54 10° NE
Helios 1A 4.4 23:50:18 20° SW 23:52:08 28° W 23:55:47 10° NW
Cosmos 2285 Rocket 4.0 23:49:18 26° S 23:52:55 66° ESE 23:59:09 10° NNE
SL-4 R/B 2.3 23:48:51 10° W 23:53:43 87° SSE 23:58:22 10° E
